Regional Weather Roundup
Issued by NWS

Home | Current Version | Previous Version | Graphics & Text | Print | Product List | Glossary Off
Versions: 1 2 3 4 5 6 7 8 9 10 11 12 13 14 15 16 17 18 19 20 21 22 23 24 25 26 27 28 29 30 31 32 33 34 35 36 37 38 39 40 41 42 43 44 45 46 47 48 49 50

000
ASUS43 KDMX 222101
RWRIA

WEATHER ROUNDUP FOR IOWA
NATIONAL WEATHER SERVICE DES MOINES IA
400 PM CDT TUE AUG 22 2017

NOTE: "FAIR" INDICATES FEW OR NO CLOUDS BELOW 12,000 FEET WITH NO
SIGNIFICANT WEATHER AND/OR OBSTRUCTIONS TO VISIBILITY.

* - THESE STATIONS ARE NOT NWS STATIONS...THUS NOT UNDER NWS
QUALITY CONTROL.  THEY ALSO DO NOT REPORT WEATHER SUCH
AS PRECIPITATION OR FOG.

IAZ001>003-012>014-020>022-031>034-043>046-222200-
   NORTHWEST IOWA

CITY           SKY/WX    TMP DP  RH WIND       PRES   REMARKS
CARROLL *      SUNNY     73  54  49 NW9G16    30.13F
CHEROKEE *     SUNNY     74  49  42 N9G18     30.15S
DENISON *      SUNNY     72  52  49 N12G17    30.16F
LE MARS *      MOSUNNY  102 N/A N/A NW7G16    30.16S
ORANGE CITY *  SUNNY     75  52  43 NW10G17   30.16S
SHELDON *      SUNNY     73  50  43 NW9G18    30.14S
SIOUX CITY     SUNNY     74  51  44 NW12      30.16F
SPENCER        SUNNY     75  49  39 NW15G22   30.13F
STORM LAKE *   SUNNY     72  52  49 NW12G20   30.15F
$$

IAZ055>058-069>071-079>083-090>094-222200-
   SOUTHWEST IOWA

CITY           SKY/WX    TMP DP  RH WIND       PRES   REMARKS
ATLANTIC *     SUNNY     73  52  46 N12G17    30.14F
AUDUBON *      SUNNY     73  52  46 N10G16    30.16S
CLARINDA *     SUNNY     75  54  46 N10       30.16S
COUNCIL BLFS * SUNNY     73  54  49 NW10      30.15F
CRESTON *      SUNNY     75  46  35 N15G23    30.14F
HARLAN  *      SUNNY     73  52  46 N12       30.18F
LAMONI         SUNNY     77  50  38 NW14G23   30.11F
RED OAK *      SUNNY     75  52  43 N10       30.15S
SHENANDOAH *   SUNNY     75  52  43 NW8       30.15F
$$

IAZ047>049-059>061-072>074-084-222200-
   CENTRAL IOWA

CITY           SKY/WX    TMP DP  RH WIND       PRES   REMARKS
AMES           SUNNY     73  53  49 NW15      30.11S
ANKENY *       SUNNY     75  48  38 N9G20     30.11S
BOONE *        SUNNY     73  50  43 NW15G25   30.10F
CHARITON *     SUNNY     75  54  46 N10G21    30.10S
DES MOINES     MOSUNNY   77  47  34 NW12G20   30.10S
GRINNELL*      SUNNY     72  53  51 NW14G23   30.10S
KNOXVILLE *    SUNNY     75  46  35 NW15      30.08F
MARSHALLTOWN   SUNNY     74  53  48 NW16      30.08F
NEWTON *       SUNNY     73  52  46 NW14      30.09S
PELLA *        SUNNY     76  48  37 NW13G22   30.10S
PERRY *          N/A     75  47  37 NW12      30.13S
$$

IAZ004>006-015-016-023>025-035-036-222200-
   NORTH CENTRAL IOWA

CITY           SKY/WX    TMP DP  RH WIND       PRES   REMARKS
ALGONA *       SUNNY     73  48  40 NW13G21   30.12S
CLARION *      SUNNY     72  52  49 NW13G24   30.11S
ESTHERVILLE    SUNNY     72  50  45 NW13G21   30.11F
FORT DODGE *   SUNNY     73  52  46 NW8       30.12S
MASON CITY     SUNNY     73  49  42 NW16      30.10F
FOREST CITY *    N/A     72  50  46 NW15G21   30.10S
WEBSTER CITY * SUNNY     73  50  43 NW13G21   30.09F
IOWA FALLS *     N/A     73  50  44 NW15G22   30.10F
$$

IAZ007>011-017>019-026>030-037>042-050>054-066-222200-
   NORTHEAST IOWA

CITY           SKY/WX    TMP DP  RH WIND       PRES   REMARKS
CEDAR RAPIDS   SUNNY     76  53  44 NW13      30.04S
CHARLES CITY * MOSUNNY   72  50  46 NW15G22   30.07F
CLINTON *      MOSUNNY   74  58  57 NW15      30.00F
DECORAH *      MOSUNNY   72  50  46 NW13G22   30.03S
DUBUQUE        MOSUNNY   73  51  46 NW16      30.02S
MONTICELLO *   SUNNY     75  54  46 NW13G25   30.02S
OELWEIN *      MOSUNNY   72  54  53 NW18      30.06S
WATERLOO       MOSUNNY   73  48  41 NW17      30.05S
$$

IAZ064-065-067-068-078-222200-
   EAST CENTRAL IOWA

CITY           SKY/WX    TMP DP  RH WIND       PRES   REMARKS
DAVENPORT      SUNNY     76  54  46 NW15G24   30.02F
IOWA CITY      SUNNY     78  53  41 NW14G29   30.05S
MUSCATINE *    SUNNY     77  54  44 NW15G23   30.03R
QUAD CITIES    SUNNY     79  53  40 NW13G28   30.00S
$$

IAZ062-063-075>077-085>089-095>099-222200-
   SOUTHEAST IOWA

CITY           SKY/WX    TMP DP  RH WIND       PRES   REMARKS
BURLINGTON     MOSUNNY   78  57  48 NW13      30.02S
FAIRFIELD *    SUNNY     75  54  46 NW16      30.05S
FORT MADISON * SUNNY     77  57  50 NW13G20   30.04S
KEOKUK *       SUNNY     79  55  44 N13G22    30.02F
OSKALOOSA *      N/A     76  52  43 NW14      30.08S
OTTUMWA        SUNNY     78  52  40 NW14      30.07S
WASHINGTON *   SUNNY     75  55  50 NW12G21   30.06S
$$

ABBREVIATIONS USED IN REMARKS
   TC - TEMPERATURES IN CELSIUS
  WCI - WIND CHILL INDEX
   HX - HEAT INDEX
  VSB - VISIBILITY
$$





USA.gov is the U.S. government's official web portal to all federal, state and local government web resources and services.